Regional Weather Roundup
Issued by NWS

Home | Current Version | Previous Version | Text Only | Print | Product List | Glossary Off
Versions: 1 2 3 4 5 6 7 8 9 10 11 12 13 14 15 16 17 18 19 20 21 22 23 24 25 26 27 28 29 30 31 32 33 34 35 36 37 38 39 40 41 42 43 44 45 46 47 48 49 50

000
ASUS44 KMEG 310310
RWRTN
TENNESSEE HOURLY STATE WEATHER ROUNDUP
NATIONAL WEATHER SERVICE MEMPHIS TN
1000 PM CDT SUN AUG 30 2015

TNZ002-004-019-021-049-052-054-088>092-310400-
WEST TENNESSEE

CITY           SKY/WX    TMP DP  RH WIND       PRES   REMARKS
MEMPHIS INTL   PTCLDY    78  70  76 SE8       30.04R
NWS MEMPHIS      N/A     74 N/A N/A MISG        N/A
JACKSON        PTCLDY    70  69  97 CALM      30.05R
DYERSBURG      PTCLDY   N/A N/A N/A MISG        N/A
UNION CITY     CLEAR     68  68 100 CALM      30.05R
PARIS          CLEAR     68  66  94 CALM      30.07F
LEXINGTON      CLEAR     72  70  94 CALM      30.07R
$$

TNZ008-025-027-028-033-062-065-066-310400-
NORTH MIDDLE TENNESSEE

CITY           SKY/WX    TMP DP  RH WIND       PRES   REMARKS
NASHVILLE      PTCLDY    71  64  78 CALM      30.10S
CLARKSVILLE    MOCLDY    71  69  93 CALM      30.08R
SMYRNA         PTCLDY    69  67  93 CALM      30.11S
COOKEVILLE     PTCLDY    70  68  94 CALM      30.11F
CROSSVILLE     MOCLDY    71  66  84 CALM      30.16F
$$

TNZ061-075-076-078-094-096-097-310400-
SOUTH MIDDLE TENNESSEE

CITY           SKY/WX    TMP DP  RH WIND       PRES   REMARKS
FAYETTEVILLE   CLEAR     66  64  94 E3        30.11F
TULLAHOMA      MOCLDY    64  64 100 CALM      30.13F VSB 1/2
WINCHESTER     PTCLDY    68  66  94 CALM      30.11F
MCMINNVILLE    CLEAR     66  66 100 CALM      30.12F
COLUMBIA       CLEAR     70  70 100 CALM      30.09R
SHELBYVILLE      N/A     68  68 100 E3        30.12S
$$

TNZ017-018-042-046-047-310400-
NORTHEAST TENNESSEE

CITY           SKY/WX    TMP DP  RH WIND       PRES   REMARKS
TRI CITIES     LGT RAIN  70  62  76 SW5       30.16S
ELIZABETHTON   MOCLDY    72  59  64 E7        30.17R
$$

TNZ012-013-036-069-073-074-310400-
CENTRAL EAST TENNESSEE

CITY           SKY/WX    TMP DP  RH WIND       PRES   REMARKS
KNOXVILLE      CLOUDY    67  65  93 CALM      30.08R
OAK RIDGE      CLOUDY    74  67  78 CALM      30.12F
GATLINBURG     MOCLDY    66  63  88 CALM      30.12S
MORRISTOWN     CLEAR     68  63  83 CALM      30.15S
$$

TNZ083-085-099-310400-
SOUTHEAST TENNESSEE

CITY           SKY/WX    TMP DP  RH WIND       PRES   REMARKS
CHATTANOOGA    MOCLDY    73  65  75 S3        30.12R
$$

SKY/WX REPORTED AS FAIR MEANS FEW OR NO CLOUDS BELOW
12 THOUSAND FEET.



USA.gov is the U.S. government's official web portal to all federal, state and local government web resources and services.